Regional Weather Roundup
Issued by NWS Austin/San Antonio, TX

Home | Current Version | Previous Version | Text Only | Print | Product List | Glossary On
Versions: 1 2 3 4 5 6 7 8 9 10 11 12 13 14 15 16 17 18 19 20 21 22 23 24 25 26 27 28 29 30 31 32 33 34 35 36 37 38 39 40 41 42 43 44 45 46 47 48 49 50
000
ASUS44 KEWX 221402
RWREWX
SOUTH TEXAS REGIONAL WEATHER ROUNDUP
NATIONAL WEATHER SERVICE AUSTIN/SAN ANTONIO TX
800 AM CST THU FEB 22 2018

NOTE: "FAIR" INDICATED FEW OR NO CLOUDS BELOW 12,000 FEET WITH NO
SIGNIFICANT WEATHER AND/OR OBSTRUCTIONS TO VISIBILITY.

* - THESE STATIONS ARE NOT NWS OR FAA STATIONS...AND ARE NOT SUBJECT
    TO NWS AND FAA QUALITY CONTROL.

TXZ171-172-183>190-221500-
TEXAS HILL COUNTRY AND EDWARDS PLATEAU

CITY           SKY/WX    TMP DP  RH WIND       PRES   REMARKS
JUNCTION       NOT AVBL
*LLANO         CLOUDY    34  34 100 NW5       30.30R FOG     WCI  30
BURNET         CLOUDY    34  34 100 N5        30.26S FOG     WCI  30
*HORSESHOE BAY CLOUDY    34  34 100 NW6       30.26R FOG     WCI  29
*KERRVILLE     CLOUDY    36  34  92 N5        30.20F FOG     WCI  32
*FREDERICKSBRG CLOUDY    34  33  96 N6        30.22S FOG     WCI  29
*ROCKSPRINGS   CLOUDY    34  34 100 NE6       30.24R FOG     WCI  29
*BOERNE STAGE  CLOUDY    36  36 100 N7        30.22R VSB 1   WCI  30
*CASTROVILLE   CLOUDY    44  44 100 NE6       30.23S FOG     WCI  40
HONDO          CLOUDY    45  32  60 N6        30.22R HAZE    WCI  42
*UVALDE        DRIZZLE   42  41  97 N7        30.24R WCI  37
DEL RIO        CLOUDY    41  39  93 W8        30.23R WCI  36
LAUGHLIN AFB   CLOUDY    40  39  94 NW8       30.22R WCI  35
CARRIZO SPRGS  CLOUDY    43  43 100 CALM      30.22R
*EAGLE PASS    CLOUDY    41  39  93 NW7       30.23R WCI  36
*FAITH RANCH   CLOUDY    43  43 100 CALM      30.23R
$$

TXZ173-191>194-202-209-217>225-228-221500-
CENTRAL AND SOUTH CENTRAL TEXAS

CITY           SKY/WX    TMP DP  RH WIND       PRES   REMARKS
GEORGETOWN     LGT SNOW  35  34  96 N9        30.27S FOG     WCI  28
AUSTIN/BERGSTM DRIZZLE   37  37 100 N8        30.25S FOG     WCI  31
AUSTIN/MABRY   CLOUDY    37  36  96 N6        30.26S WCI  32
*AUSTIN/EXEC   NOT AVBL
*LAGO VISTA    CLOUDY    35  35 100 NW6       30.24R FOG     WCI  30
SAN MARCOS     CLOUDY    38  37  97 N13       30.25R FOG     WCI  30
NEW BRAUNFELS  CLOUDY    40  38  93 NE15      30.22R FOG     WCI  32
RANDOLPH AFB   CLOUDY    41  40  94 N12       30.22R FOG     WCI  35
PT SAN ANTONIO CLOUDY    42  41  96 N8        30.20R WCI  38
SAN ANTONIO    LGT RAIN  41  40  96 N7        30.21S VSB 1   WCI  36
STINSON FIELD  CLOUDY    45  43  93 N5        30.21R FOG     WCI  43
*LA GRANGE     LGT RAIN  41  41  99 N8        30.22R WCI  36
*GIDDINGS      DRIZZLE   37  36  99 N6        30.25R WCI  32
*GONZALES      CLOUDY    41  41 100 N8        30.23S FOG     WCI  36
$$

TXZ163>164-176>182-195>201-210>213-226-227-235-221500-
SOUTHEAST TEXAS

CITY           SKY/WX    TMP DP  RH WIND       PRES   REMARKS
COLLEGE STN    LGT RAIN  42  42 100 NW8       30.25R FOG     WCI  37
*BRYAN         DRIZZLE   40  40 100 N6        30.26R WCI  36
*CALDWELL      FOG       39  38  98 N7        30.25S VSB 1   WCI  34
*CROCKETT      CLOUDY    45  45 100 N3        30.27R
*BRENHAM       CLOUDY    44  44 100 N7        30.24R FOG     WCI  40
HUNTSVILLE     CLOUDY    45  44  97 VRB3      30.23R FOG
CONROE         FOG       50  50 100 NW5       30.23R VSB 1   WCI  48
HOUSTON BUSH   DRZL/FOG  56  55  97 NE7       30.21R VSB 1/2
HOUSTON HOBBY  CLOUDY    57  57 100 N6        30.20R FOG
*HOUSTON SW AP FOG       55  55 100 NE5       30.21R VSB 1
PEARLAND       CLOUDY    57  57 100 N7        30.21S FOG
HOUSTON HOOKS  CLOUDY    52  52 100 N5        30.21R FOG
ELLINGTON FLD  FOG       57  57 100 N6        30.21R VSB 1/2
SUGAR LAND     FOG       57  55  93 N8        30.20R VSB 3/4
*HOUSTON EXEC  FOG       50  50 100 VRB5      30.22R VSB 1   WCI  48
*CLEVELAND MUN CLOUDY    55  54  95 CALM      30.23R FOG
*WHARTON       CLOUDY    49  49  97 N5        30.21S FOG     WCI  48
*COLUMBUS      CLOUDY    44  43  95 N6        30.23R FOG     WCI  41
*EAGLE LAKE    CLOUDY    47  47 100 N9        30.22R FOG     WCI  43
$$

TXZ214>216-236>238-221500-
THE UPPER TEXAS COAST

CITY           SKY/WX    TMP DP  RH WIND       PRES   REMARKS
*ORANGE        CLOUDY    72  72 100 SE5       30.23R FOG
PORT ARTHUR    CLOUDY    69  67  93 CALM      30.20R FOG
GALVESTON      FOG       68  67  96 N7        30.20R VSB 3/4
ANGLETON       FOG       57  56  96 N5        30.19R VSB 1
*BAY CITY      FOG       55  55 100 N6        30.19R VSB 3/4
PALACIOS       FOG       54  54 100 N9        30.19R VSB 3/4
$$

TXZ229>234-239>247-221500-
TEXAS COASTAL BEND AND RIO GRANDE PLAINS

CITY           SKY/WX    TMP DP  RH WIND       PRES   REMARKS
VICTORIA       CLOUDY    49  47  93 N9        30.21R FOG     WCI  45
*BEEVILLE      CLOUDY    46  46 100 NE9       30.19S FOG     WCI  41
ROCKPORT       CLOUDY    53  53 100 N8        30.19R FOG
*PORT ARANSAS  NOT AVBL
*PORT LAVACA   CLOUDY    51  50  96 N9        30.19R FOG
*INGLESIDE     CLOUDY    53  51  95 MISG      30.19R FOG
CORPUS CHRISTI DRIZZLE   50  50 100 N9        30.18R FOG     WCI  46
CORPUS NAS     DRIZZLE   53  53 100 N10       30.19R FOG
*ROBSTOWN      CLOUDY    50  49  99 N10       30.19S FOG     WCI  45
ALICE          CLOUDY    50  49  96 N8        30.19S FOG     WCI  47
KINGSVILLE NAS DRZL/FOG  51  50  96 N7        30.20R VSB 3/4
COTULLA        CLOUDY    46  46 100 N6        30.23R FOG     WCI  43
LAREDO         CLOUDY    46  44  93 NW9       30.23R WCI  41
$$

TXZ248>255-221500-
DEEP SOUTH TEXAS

CITY           SKY/WX    TMP DP  RH WIND       PRES   REMARKS
BROWNSVILLE    CLOUDY    53  52  96 NW8       30.18R FOG
PORT ISABEL    CLOUDY    53  50  89 NW12      30.16R FOG
*SOUTH PADRE   NOT AVBL
HARLINGEN      CLOUDY    50  50 100 NW12      30.18R FOG     WCI  46
*HEBBRONVILLE  CLOUDY    47  46  98 N8        30.20R FOG     WCI  43
MCALLEN        CLOUDY    53  51  93 NW8       30.20R
*WESLACO       NOT AVBL
FALFURRIAS     CLOUDY    50  49  94 N5        30.20R WCI  49
EDINBURG       CLOUDY    52  50  93 N8        30.20R FOG
*ZAPATA        CLOUDY    47  47  98 N7        30.21R WCI  44
$$

TXZ213>215-236>238-242>244-246-247-251-254-255-221500-
CMAN STATIONS

STATION/POSITION TIME  TEMP    WIND        PRES    WAVE
                       AIR SEA DIR/SP/G            HT/PER
                 (UTC) (F)     (DEG/KT/KT) (MB)    (FT/S)
SABINE PASS      1330   68 69  140/  9/ 11 1024.5
SEA RIM ST PARK  1300   69     150/ 10/ 12 1022.7
NORTH JETTY/GLS  1318      66   60/  6/  7 1021.8
EAGLE POINT      1318   63 67   10/  5/  7 1022.6
MORGANS POINT    1330   60 65   20/  5/  6 1022.5
PORT O`CONNOR    1330   56 61   10/ 11/ 12 1021.8
MALAQUITE BEACH  1330   85 64  350/ 10/ 12 1021.3
BAFFIN BAY       1330   50 66  330/ 10/ 13 1022.2
PORT ISABEL      1330   54 66  320/  8/ 11 1020.9
$$




USA.gov is the U.S. government's official web portal to all federal, state and local government web resources and services.